Cumberland, WI

3:58 PM CST on December 07, 2019 (GMT -0600)
Cumberland Municipal

Weather History for KUBE - October, 2019

Change the Weather History Date:

Thursday, October 31, 2019

  Actual Average (WUND) Record (WUND)
Temperature  
Mean Temperature 28 °F -  
Max Temperature 32 °F - - (-1)
Min Temperature 23 °F - - (-1)
Degree Days  
Heating Degree Days 38    
Moisture  
Dew Point 15 °F    
Average Humidity 65    
Maximum Humidity 86    
Minimum Humidity 48    
Precipitation  
Precipitation 0.00 in - - ()
Sea Level Pressure  
Sea Level Pressure 30.04 in    
Wind  
Wind Speed 6 mph ()    
Max Wind Speed 14 mph    
Max Gust Speed -    
Visibility 10.0 miles    
Events      
Averages and records for this station are not official NWS values.
T = Trace of Precipitation, MM = Missing Value Source: Averaged Metar Reports

Daily Weather History Graph

Daily Weather History Graph

Search for Another Location

Airport or City:

Astronomy

Oct. 31, 2019 Rise Set
Actual Time 7:45 AM CDT 5:56 PM CDT
Civil Twilight 7:14 AM CDT 6:27 PM CDT
Nautical Twilight 6:39 AM CDT 7:02 PM CDT
Astronomical Twilight 6:05 AM CDT 7:36 PM CDT
Moon 11:43 AM CDT (10/31) 8:44 PM CDT (10/31)
Length of Visible Light 11h 12m
Length of Day
10h 10m
Waxing Crescent, 16% of the Moon is Illuminated
Oct 31
Waxing Crescent
Nov 4
First Quarter
Nov 12
Full
Nov 19
Last Quarter
Nov 26
New

Hourly Weather History & Observations

Time (CDT) Temp. Windchill Dew Point Humidity Pressure Visibility Wind Dir Wind Speed Gust Speed Precip Events Conditions
12:15 AM 26.6 °F 18.2 °F 14.0 °F 59% 30.14 in 10.0 mi North 8.1 mph - N/A   Overcast
12:35 AM 26.6 °F 20.0 °F 14.0 °F 59% 30.14 in 10.0 mi North 5.8 mph - N/A   Overcast
12:55 AM 26.6 °F 21.2 °F 14.0 °F 59% 30.14 in 10.0 mi NNW 4.6 mph - N/A   Overcast
1:15 AM 26.6 °F 20.0 °F 14.0 °F 59% 30.13 in 10.0 mi North 5.8 mph - N/A   Overcast
1:35 AM 26.6 °F 20.0 °F 14.0 °F 59% 30.13 in 10.0 mi North 5.8 mph - N/A   Overcast
1:55 AM 26.6 °F 20.0 °F 14.0 °F 59% 30.12 in 10.0 mi NNE 5.8 mph - N/A   Overcast
2:15 AM 26.6 °F 21.2 °F 14.0 °F 59% 30.11 in 10.0 mi North 4.6 mph - N/A   Overcast
2:35 AM 26.6 °F 18.2 °F 14.0 °F 59% 30.11 in 10.0 mi NNW 8.1 mph - N/A   Overcast
2:55 AM 26.6 °F 20.0 °F 14.0 °F 59% 30.10 in 10.0 mi NNW 5.8 mph - N/A   Overcast
3:15 AM 26.6 °F 20.0 °F 14.0 °F 59% 30.10 in 10.0 mi North 5.8 mph - N/A   Overcast
3:35 AM 26.6 °F 18.2 °F 14.0 °F 59% 30.09 in 10.0 mi NNW 8.1 mph - N/A   Overcast
3:55 AM 24.8 °F 19.1 °F 15.8 °F 69% 30.09 in 10.0 mi NNW 4.6 mph - N/A   Overcast
4:15 AM 24.8 °F 17.9 °F 15.8 °F 69% 30.09 in 10.0 mi NNW 5.8 mph - N/A   Overcast
4:35 AM 24.8 °F 19.1 °F 15.8 °F 69% 30.09 in 10.0 mi NNW 4.6 mph - N/A   Overcast
4:55 AM 24.8 °F 16.1 °F 15.8 °F 69% 30.09 in 10.0 mi NNW 8.1 mph - N/A   Overcast
5:15 AM 24.8 °F 16.1 °F 15.8 °F 69% 30.09 in 10.0 mi NNW 8.1 mph - N/A   Overcast
5:35 AM 24.8 °F 16.9 °F 15.8 °F 69% 30.09 in 10.0 mi NNW 6.9 mph - N/A   Overcast
6:15 AM 24.8 °F 15.3 °F 14.0 °F 64% 30.08 in 10.0 mi NNW 9.2 mph - N/A   Overcast
6:35 AM 24.8 °F 16.1 °F 14.0 °F 64% 30.08 in 10.0 mi NNW 8.1 mph - N/A   Overcast
6:55 AM 24.8 °F 14.0 °F 14.0 °F 64% 30.08 in 10.0 mi North 11.5 mph - N/A   Overcast
7:15 AM 24.8 °F 17.9 °F 14.0 °F 64% 30.08 in 10.0 mi NNW 5.8 mph - N/A   Overcast
7:35 AM 23.0 °F 10.6 °F 14.0 °F 68% 30.08 in 10.0 mi NNW 13.8 mph - N/A   Overcast
7:55 AM 23.0 °F 13.1 °F 14.0 °F 68% 30.07 in 10.0 mi North 9.2 mph - N/A   Overcast
8:15 AM 23.0 °F 11.7 °F 14.0 °F 68% 30.08 in 10.0 mi NNW 11.5 mph - N/A   Overcast
8:35 AM 24.8 °F 16.1 °F 14.0 °F 64% 30.08 in 10.0 mi NNW 8.1 mph - N/A   Overcast
8:55 AM 24.8 °F 15.3 °F 14.0 °F 64% 30.08 in 10.0 mi NW 9.2 mph - N/A   Overcast
9:15 AM 24.8 °F 15.3 °F 14.0 °F 64% 30.07 in 10.0 mi NNW 9.2 mph - N/A   Overcast
9:35 AM 24.8 °F 16.1 °F 14.0 °F 64% 30.07 in 10.0 mi NNW 8.1 mph - N/A   Overcast
9:55 AM 24.8 °F 15.3 °F 14.0 °F 64% 30.07 in 10.0 mi NNW 9.2 mph - N/A   Overcast
10:15 AM 24.8 °F 15.3 °F 14.0 °F 64% 30.06 in 10.0 mi NNW 9.2 mph - N/A   Overcast
10:35 AM 26.6 °F 17.5 °F 12.2 °F 55% 30.06 in 10.0 mi North 9.2 mph - N/A   Overcast
10:55 AM 26.6 °F 19.1 °F 14.0 °F 59% 30.06 in 10.0 mi NW 6.9 mph - N/A   Overcast
11:15 AM 26.6 °F 19.1 °F 12.2 °F 55% 30.05 in 10.0 mi NNW 6.9 mph - N/A   Overcast
11:35 AM 26.6 °F 20.0 °F 12.2 °F 55% 30.05 in 10.0 mi North 5.8 mph - N/A   Overcast
11:55 AM 26.6 °F 19.1 °F 14.0 °F 59% 30.05 in 10.0 mi North 6.9 mph - N/A   Overcast
12:15 PM 26.6 °F 21.2 °F 12.2 °F 55% 30.04 in 10.0 mi NNW 4.6 mph - N/A   Overcast
1:15 PM 28.4 °F 23.3 °F 14.0 °F 55% 30.02 in 10.0 mi NW 4.6 mph - N/A   Overcast
1:35 PM 28.4 °F 23.3 °F 12.2 °F 51% 30.01 in 10.0 mi NW 4.6 mph - N/A   Mostly Cloudy
1:55 PM 28.4 °F 21.2 °F 14.0 °F 55% 30.00 in 10.0 mi WNW 6.9 mph - N/A   Mostly Cloudy
2:15 PM 30.2 °F 21.9 °F 14.0 °F 51% 29.99 in 10.0 mi NW 9.2 mph - N/A   Scattered Clouds
2:35 PM 30.2 °F 23.4 °F 14.0 °F 51% 29.99 in 10.0 mi NW 6.9 mph - N/A   Clear
2:55 PM 30.2 °F 25.4 °F 14.0 °F 51% 29.99 in 10.0 mi NW 4.6 mph - N/A   Clear
3:15 PM 30.2 °F 24.3 °F 14.0 °F 51% 29.98 in 10.0 mi North 5.8 mph - N/A   Scattered Clouds
3:35 PM 32.0 °F 28.7 °F 14.0 °F 48% 29.98 in 10.0 mi WNW 3.5 mph - N/A   Scattered Clouds
3:55 PM 32.0 °F 27.5 °F 14.0 °F 48% 29.98 in 10.0 mi NNW 4.6 mph - N/A   Scattered Clouds
4:15 PM 32.0 °F 25.6 °F 14.0 °F 48% 29.98 in 10.0 mi WNW 6.9 mph - N/A   Clear
4:35 PM 32.0 °F 27.5 °F 14.0 °F 48% 29.98 in 10.0 mi WNW 4.6 mph - N/A   Clear
4:55 PM 32.0 °F 24.2 °F 15.8 °F 51% 29.98 in 10.0 mi West 9.2 mph - N/A   Scattered Clouds
5:15 PM 30.2 °F 21.9 °F 15.8 °F 55% 29.98 in 10.0 mi West 9.2 mph - N/A   Clear
5:35 PM 30.2 °F 23.4 °F 17.6 °F 60% 29.98 in 10.0 mi West 6.9 mph - N/A   Clear
5:55 PM 30.2 °F 22.6 °F 17.6 °F 60% 29.99 in 10.0 mi WSW 8.1 mph - N/A   Clear
6:15 PM 28.4 °F 21.2 °F 17.6 °F 64% 29.99 in 10.0 mi West 6.9 mph - N/A   Clear
6:35 PM 28.4 °F 23.3 °F 17.6 °F 64% 29.99 in 10.0 mi WSW 4.6 mph - N/A   Clear
6:55 PM 26.6 °F 22.6 °F 17.6 °F 69% 29.99 in 10.0 mi WSW 3.5 mph - N/A   Clear
7:15 PM 26.6 °F 22.6 °F 17.6 °F 69% 29.99 in 10.0 mi SW 3.5 mph - N/A   Clear
7:35 PM 24.8 °F 20.5 °F 19.4 °F 80% 29.99 in 10.0 mi SSW 3.5 mph - N/A   Clear
7:55 PM 26.6 °F 21.2 °F 19.4 °F 74% 30.00 in 10.0 mi SW 4.6 mph - N/A   Clear
8:35 PM 23.0 °F 18.4 °F 19.4 °F 86% 30.00 in 10.0 mi SSW 3.5 mph - N/A   Clear
8:55 PM 23.0 °F 17.0 °F 19.4 °F 86% 30.00 in 10.0 mi SSW 4.6 mph - N/A   Clear
9:15 PM 23.0 °F 17.0 °F 19.4 °F 86% 29.98 in 10.0 mi South 4.6 mph - N/A   Clear
9:35 PM 23.0 °F - 19.4 °F 86% 29.99 in 10.0 mi Calm Calm - N/A   Clear
9:55 PM 23.0 °F 18.4 °F 19.4 °F 86% 30.00 in 10.0 mi South 3.5 mph - N/A   Clear
10:15 PM 23.0 °F 18.4 °F 19.4 °F 86% 30.00 in 10.0 mi South 3.5 mph - N/A   Clear
10:35 PM 23.0 °F 17.0 °F 19.4 °F 86% 30.00 in 10.0 mi South 4.6 mph - N/A   Clear
10:55 PM 23.0 °F 17.0 °F 19.4 °F 86% 29.99 in 10.0 mi South 4.6 mph - N/A   Clear
11:15 PM 23.0 °F 18.4 °F 19.4 °F 86% 29.98 in 10.0 mi South 3.5 mph - N/A   Clear
11:35 PM 23.0 °F 17.0 °F 19.4 °F 86% 29.98 in 10.0 mi South 4.6 mph - N/A   Scattered Clouds
11:55 PM 23.0 °F 17.0 °F 19.4 °F 86% 29.97 in 10.0 mi South 4.6 mph - N/A   Scattered Clouds